Location: Guayaquil
(2.1667°S, 79.9000°W)
Time: 22:45:24
(UTC-05:00)

N. Korean satellite - Visible Passes

Search period start: 27 June 2017 00:00
Search period end: 07 July 2017 00:00
Orbit: 461 x 518 km, 97.2° (Epoch: 26 June)

Date Brightness Start Highest point End Pass type
(mag) Time Alt. Az. Time Alt. Az. Time Alt. Az.
27 Jun 9.3 19:39:28 10° SSW 19:42:08 19° WSW 19:44:47 10° NW visible
28 Jun 7.9 19:15:45 10° S 19:19:19 43° W 19:22:50 10° NNW visible
29 Jun 6.6 18:52:44 10° SSE 18:56:29 74° E 19:00:09 10° N visible
01 Jul 9.4 19:41:32 10° SW 19:44:02 17° WSW 19:46:29 10° WNW visible
02 Jul 8.0 19:17:42 10° S 19:21:12 39° WSW 19:24:39 10° NNW visible
03 Jul 6.6 18:54:38 10° SSE 18:58:22 81° E 19:02:00 10° N visible
05 Jul 9.5 19:43:37 10° SW 19:45:53 16° WSW 19:48:07 10° WNW visible
06 Jul 8.2 19:19:39 10° SSW 19:23:03 35° WSW 19:26:23 10° NW visible
